Weather in Anavgay

Russia / Kamchatka Krai     56°03′16″N   158°58′08″E
temp.,
°C
wind,
m/s
gust,
m/s
humid.,
%
clouds,
%
prec.,
mm/h
press.,
hPa
HPBL,
m
6 august, fri
fri600:00+3wnw5118847 0.3 1003849
03:00+2wnw71289100 0.1 1002874
06:00+2nw61387100 0.1 1002913
09:00+5wnw6127299 0.0 10001044
12:00+5wnw3680100 0.2 1001797
15:00+6nw2482100 0.4 1001805
18:00+5nnw2391100 0.9 1002410
21:00+3nnw2398100 1.7 1005432
7 august, sat
sat700:00+3nw129898 1.8 1008190
03:00+3wnw1196100 0.0 100948
06:00+4n1195100 0.1 101126
09:00+5nne019492 0.1 1013218
12:00+7sse118591 0.3 1014419
15:00+8e1275100 0.2 1014717
18:00+9ne117286 0.4 1015539
21:00+7n228994 0.3 101744
8 august, sun
sun800:00+6nnw2289100 0.3 101838
03:00+4nw11898 0.0 101811
06:00+3wnw22895 0.0 101919
09:00+9nw237186 0.0 1018386
12:00+13nnw345152 0.0 10161580
15:00+12nw446084 0.1 10171239
18:00+12nnw3460100 0.3 10161184
21:00+8nw22795 0.0 101814
9 august, mon
mon900:00+5wnw22895 0.0 101915
03:00+5nw22915 0.0 101920
06:00+4wnw229310 0.0 101921
09:00+10nw217111 0.0 1018386
12:00+13n115193 0.2 10161729
15:00+13sw1155100 0.1 1016954
18:00+13n226092 0.2 1016880
21:00+9n117599 0.1 101710
10 august, tue
tue1000:00+8w118194 0.2 101812
03:00+5w11868 0.0 101912
06:00+4wnw11850 0.0 101913
09:00+11ssw01630 0.0 1018361
12:00+14se23456 0.0 10171582
15:00+16se334220 0.0 10161940
18:00+15ese224318 0.0 10151558
21:00+9sse22685 0.0 101610